Location: Gloden
(48.4833°N, 15.3167°E)
Time: 09:28:19
(UTC+00:00)

Cosmos 389 Rocket - Pass Details

Date: 15 December 2019
Orbit: 443 x 478 km, 81.1° (Epoch: 28 January)

Event Time Altitude Azimuth Distance (km) Brightness Sun altitude
Exits shadow 05:34:25 - 352° (N) 2,499 5.9 -10.8°
Rises 05:34:25 0° 352° (N) 2,494 5.9 -10.8°
Reaches altitude 10° 05:36:34 10° 358° (N) 1,608 5.0 -10.5°
Maximum altitude 05:40:00 50° 75° (ENE) 586 3.3 -10.0°
Drops below altitude 10° 05:43:21 10° 152° (SSE) 1,576 6.0 -9.5°
Sets 05:45:26 0° 158° (SSE) 2,438 6.9 -9.2°
